TimeGMT,TemperatureF,Dew PointF,Humidity,Sea Level PressureIn,VisibilityMPH,Wind Direction,Wind SpeedMPH,Gust SpeedMPH,PrecipitationIn,Events,Conditions,WindDirDegrees,DateUTC
12:20 AM,37.4,30.2,75,30.15,6.2,North,8.1,-,N/A,,Partly Cloudy,10,2013-02-09 00:20:00
12:50 AM,37.4,32.0,81,30.15,6.2,NNE,4.6,-,N/A,,Partly Cloudy,20,2013-02-09 00:50:00
1:20 AM,35.6,30.2,81,30.15,6.2,Variable,3.5,-,N/A,,Scattered Clouds,0,2013-02-09 01:20:00
1:50 AM,35.6,30.2,81,30.15,6.2,NNE,4.6,-,N/A,,Unknown,20,2013-02-09 01:50:00
2:20 AM,35.6,30.2,81,30.15,6.2,North,2.3,-,N/A,,Scattered Clouds,350,2013-02-09 02:20:00
2:50 AM,36,31,76,30.17,19,North,3.5,,,,Scattered Clouds,0,2013-02-09 02:50:00
2:50 AM,35.6,30.2,81,30.15,6.2,Variable,2.3,-,N/A,,Partly Cloudy,0,2013-02-09 02:50:00
3:20 AM,35.6,30.2,81,30.15,6.2,Calm,Calm,-,N/A,,Partly Cloudy,0,2013-02-09 03:20:00
3:50 AM,35.6,30.2,81,30.15,-9999.0,Calm,Calm,-,N/A,,Clear,0,2013-02-09 03:50:00
4:20 AM,35.6,30.2,81,30.15,-9999.0,Calm,Calm,-,N/A,,Clear,0,2013-02-09 04:20:00
4:50 AM,35.6,30.2,81,30.15,-9999.0,Calm,Calm,-,N/A,,Clear,0,2013-02-09 04:50:00
5:20 AM,35.6,32.0,87,30.15,6.2,West,2.3,-,N/A,,Partly Cloudy,260,2013-02-09 05:20:00
5:50 AM,36,32,81,30.15,14,West,5.8,,,,,270,2013-02-09 05:50:00
5:50 AM,35.6,32.0,87,30.15,6.2,West,5.8,-,N/A,,Partly Cloudy,280,2013-02-09 05:50:00
6:20 AM,35.6,32.0,87,30.12,6.2,West,4.6,-,N/A,,Partly Cloudy,270,2013-02-09 06:20:00
6:50 AM,37.4,32.0,81,30.12,6.2,West,5.8,-,N/A,Rain,Light Rain,270,2013-02-09 06:50:00
7:20 AM,35.6,32.0,87,30.12,6.2,West,6.9,-,N/A,,Scattered Clouds,270,2013-02-09 07:20:00
7:50 AM,35.6,33.8,93,30.12,5.6,West,4.6,-,N/A,,Scattered Clouds,280,2013-02-09 07:50:00
8:20 AM,37.4,33.8,87,30.15,5.6,WNW,5.8,-,N/A,Rain,Light Rain,290,2013-02-09 08:20:00
8:50 AM,37,34,86,30.15,7,WNW,5.8,,,Rain,Light Rain,290,2013-02-09 08:50:00
8:50 AM,37.4,33.8,87,30.15,5.6,WNW,5.8,-,N/A,Rain,Light Rain,290,2013-02-09 08:50:00
9:20 AM,37.4,33.8,87,30.15,5.6,WNW,5.8,-,N/A,Rain,Light Rain,290,2013-02-09 09:20:00
9:50 AM,37.4,33.8,87,30.15,6.2,WNW,4.6,-,N/A,Rain,Light Rain,290,2013-02-09 09:50:00
10:20 AM,37.4,35.6,93,30.15,6.2,West,5.8,-,N/A,Rain,Light Rain,280,2013-02-09 10:20:00
10:50 AM,37.4,33.8,87,30.12,6.2,West,8.1,-,N/A,Rain,Light Rain,260,2013-02-09 10:50:00
11:20 AM,37.4,33.8,87,30.12,6.2,West,8.1,-,N/A,Rain,Light Rain,260,2013-02-09 11:20:00
11:50 AM,38,35,87,30.13,11,WSW,6.9,,,Rain,Light Rain,240,2013-02-09 11:50:00
11:50 AM,37.4,35.6,93,30.12,6.2,West,9.2,-,N/A,Rain,Light Rain,260,2013-02-09 11:50:00
12:20 PM,37.4,35.6,93,30.12,6.2,WSW,5.8,-,N/A,Rain,Light Rain,240,2013-02-09 12:20:00
12:50 PM,37.4,35.6,93,30.09,6.2,SSW,6.9,-,N/A,,Mostly Cloudy,210,2013-02-09 12:50:00
1:20 PM,37.4,33.8,87,30.09,6.2,SSW,6.9,-,N/A,,Mostly Cloudy,210,2013-02-09 13:20:00
1:50 PM,37.4,35.6,93,30.09,6.2,SSW,6.9,-,N/A,,Mostly Cloudy,210,2013-02-09 13:50:00
2:20 PM,39.2,35.6,87,30.06,6.2,SSW,6.9,-,N/A,,Mostly Cloudy,210,2013-02-09 14:20:00
2:50 PM,38,35,85,30.07,11,South,6.9,,,Rain,Rain,190,2013-02-09 14:50:00
2:50 PM,37.4,35.6,93,30.06,6.2,SSW,6.9,-,N/A,,Scattered Clouds,210,2013-02-09 14:50:00
3:20 PM,37.4,35.6,93,30.04,6.2,South,4.6,-,N/A,,Mostly Cloudy,180,2013-02-09 15:20:00
3:50 PM,39.2,35.6,87,30.04,6.2,South,5.8,-,N/A,Rain,Light Rain,180,2013-02-09 15:50:00
4:20 PM,37.4,35.6,93,30.04,6.2,SE,8.1,-,N/A,,Light Drizzle,140,2013-02-09 16:20:00
4:50 PM,37.4,35.6,93,30.04,6.2,SE,6.9,-,N/A,,Light Drizzle,140,2013-02-09 16:50:00
5:20 PM,37.4,35.6,93,30.04,5.6,SE,6.9,-,N/A,,Mostly Cloudy,140,2013-02-09 17:20:00
5:50 PM,38,35,85,30.03,6,SE,8.1,,,,Unknown Precipitation,140,2013-02-09 17:50:00
5:50 PM,37.4,35.6,93,30.01,5.6,SSE,8.1,-,N/A,,Mostly Cloudy,150,2013-02-09 17:50:00
6:20 PM,37.4,35.6,93,30.01,5.0,SE,6.9,-,N/A,,Overcast,140,2013-02-09 18:20:00
6:50 PM,37.4,35.6,93,30.01,3.1,South,6.9,-,N/A,,Light Drizzle,170,2013-02-09 18:50:00
7:20 PM,37.4,35.6,93,29.98,4.3,SSE,5.8,-,N/A,,Mostly Cloudy,160,2013-02-09 19:20:00
7:50 PM,37.4,35.6,93,29.98,5.0,SSE,6.9,-,N/A,,Overcast,150,2013-02-09 19:50:00
8:20 PM,37.4,35.6,93,29.98,5.6,SSE,5.8,-,N/A,,Mostly Cloudy,160,2013-02-09 20:20:00
8:50 PM,37,36,92,29.96,4,SE,8.1,,,,Unknown Precipitation,140,2013-02-09 20:50:00
8:50 PM,37.4,35.6,93,29.95,4.3,SSE,6.9,-,N/A,,Drizzle,150,2013-02-09 20:50:00
9:20 PM,37.4,35.6,93,29.95,4.3,SE,5.8,-,N/A,,Overcast,140,2013-02-09 21:20:00
9:50 PM,37.4,35.6,93,29.92,5.0,SSE,6.9,-,N/A,,Overcast,150,2013-02-09 21:50:00
10:20 PM,37.4,35.6,93,29.92,4.3,SE,5.8,-,N/A,,Overcast,140,2013-02-09 22:20:00
10:50 PM,37.4,35.6,93,29.89,3.7,SE,5.8,-,N/A,,Mostly Cloudy,140,2013-02-09 22:50:00
11:20 PM,37.4,35.6,93,29.89,3.7,SE,5.8,-,N/A,,Light Drizzle,130,2013-02-09 23:20:00
11:50 PM,37,36,96,29.88,1,ESE,5.8,,,,Unknown Precipitation,120,2013-02-09 23:50:00
11:50 PM,37.4,35.6,93,29.86,1.6,ESE,4.6,-,N/A,,Drizzle,120,2013-02-09 23:50:00